Regional Weather Roundup
Issued by NWS Green Bay, WI

Home | Current Version | Previous Version | Graphics & Text | Print | Product List | Glossary Off
Versions: 1 2 3 4 5 6 7 8 9 10 11 12 13 14 15 16 17 18 19 20 21 22 23 24 25 26 27 28 29 30 31 32 33 34 35 36 37 38 39 40 41 42 43 44 45 46 47 48 49 50

000
ASUS43 KGRB 251710
RWRGRB

NORTH-CENTRAL AND NORTHEAST WISCONSIN REGIONAL WEATHER ROUNDUP
NATIONAL WEATHER SERVICE GREEN BAY WI
1100 AM CST SUN JAN 25 2015

WIZ005-009-010>012-018-019-251800-
NORTH CENTRAL WISCONSIN

CITY           SKY/WX    TMP DP  RH WIND       PRES   REMARKS
IRONWOOD       PTSUNNY   16   7  67 E6        30.02R WCI   7
MANITOWISH WTR MOSUNNY   12   5  72 E6        30.00R WCI   3
ARBOR VITAE    PTSUNNY   17   8  67 CALM      29.99R
EAGLE RIVER    PTSUNNY   16   4  61 SE9       30.00R WCI   4
LAND O LAKES   PTSUNNY   14   5  69 E5        30.00R WCI   6
RHINELANDER    CLOUDY    14   5  67 NE7       30.00R WCI   4
PHILLIPS       SUNNY     13   6  72 NE3       30.00R
ANTIGO         CLOUDY    14   7  75 NE10      29.99R WCI   1
TOMAHAWK       CLOUDY    16   7  68 NE7       30.01R WCI   6
MERRILL        PTSUNNY   18   7  62 SE5       30.01R
$$

WIZ013-073-251800-
NORTHEAST WISCONSIN

CITY           SKY/WX    TMP DP  RH WIND       PRES   REMARKS
IRON MOUNTAIN  CLOUDY    17   7  64 NE8       30.02R WCI   7
MARINETTE      CLOUDY    18   7  62 NE13G18   30.06R WCI   4
OCONTO         CLOUDY    19   8  64 MISG      30.06R
$$

WIZ017-030-035>037-045-251800-
CENTRAL WISCONSIN

CITY           SKY/WX    TMP DP  RH WIND       PRES   REMARKS
MEDFORD        CLOUDY    17   9  70 E6        29.98R WCI   9
WAUSAU         CLOUDY    17   8  67 E10       29.99R WCI   5
MOSINEE        CLOUDY    18  10  73 NE13      30.01R WCI   4
MARSHFIELD     FLURRIES  19  10  68 E12       29.99R WCI   7
WISC RAPIDS    CLOUDY    20  10  65 E12G20    30.02R WCI   8
STEVENS POINT  PTSUNNY   17   8  66 E14       30.01R WCI   3
WAUPACA        CLOUDY    22  10  58 NE9G18    30.02R
SHAWANO        CLOUDY    21  10  64 NE9       30.05R
CLINTONVILLE   CLOUDY    21   9  58 NE13G18   30.04R WCI   9
$$

WIZ038-039-048-051-251800-
FOX VALLEY

CITY           SKY/WX    TMP DP  RH WIND       PRES   REMARKS
NWS GREEN BAY  LGT SNOW  19  11  70 NE23      30.03R WCI   2
APPLETON       PTSUNNY   19  10  68 NE17      30.00R WCI   4
OSHKOSH        CLOUDY    19  11  70 NE21G28   29.98R WCI   3
FOND DU LAC    CLOUDY    22  14  71 N17       29.98R WCI   8
$$

WIZ022-050-052-251800-
EAST CENTRAL WISCONSIN

CITY           SKY/WX    TMP DP  RH WIND       PRES   REMARKS
STURGEON BAY   CLOUDY    18  10  73 N13       30.05R WCI   4
MANITOWOC      CLOUDY    24  14  65 NE14G23   30.00R
SHEBOYGAN      MOSUNNY   23  11  60 NE26G35   29.97R WCI   6
$$

LMZ563-521-522-541>543-251800-
LAKESHORE

STATION/POSITION TIME  TEMP    WIND        PRES    VSBY  WAVE
                       AIR SEA DIR/SP/G                  HT/PER
                 (UTC) (F)     (DEG/KT/KT) (MB)    (MI)  (FT/S)
SHEBOYGAN LKSHOR 1700   22      40/ 22/ 26 1016.0R
KEWAUNEE LKSHORE 1700   22      60/ 16/ 23 1015.9R
TWO RIVERS CG    1600   22                 1015.8      6   3
NORTHPORT PIER   1700   17      10/ 13/ 14 1017.9R
SISTER BAY LKSHO 1600   18     360/ 12/ 18   N/A
STURGEON BAY CG  1600   20      60/ 14     1016.5      6
CHAMBERS ISLAND  1700   16     360/ 15/ 18 1017.9S
MENOMINEE LKSHOR 1700   16      20/ 15/ 18 1018.6R
$$


USA.gov is the U.S. government's official web portal to all federal, state and local government web resources and services.